Location: Be?chatów
(51.3665°N, 19.3745°E)
Time: 22:33:21
(UTC+00:00)

Cosmos 1356 Rocket - Pass Details

Date: 19 May 2025
Orbit: 517 x 566 km, 81.2° (Epoch: 16 June)

Event Time Altitude Azimuth Distance (km) Brightness Sun altitude
Exits shadow 20:28:33 12° 193° (SSW) 1,742 5.4 -13.2°
Maximum altitude 20:32:23 86° 283° (WNW) 572 3.4 -13.5°
Drops below altitude 10° 20:36:30 10° 12° (NNE) 1,860 6.7 -13.8°
Sets 20:38:40 0° 13° (NNE) 2,753 7.7 -13.9°
